Regional Weather Roundup
Issued by NWS

Home | Current Version | Previous Version | Text Only | Print | Product List | Glossary On
Versions: 1 2 3 4 5 6 7 8 9 10 11 12 13 14 15 16 17 18 19 20 21 22 23 24 25 26 27 28 29 30 31 32 33 34 35 36 37 38 39 40 41 42 43 44 45 46 47 48 49 50
946
ASUS44 KFWD 241215
RWRTX
NORTH TEXAS HOURLY WEATHER ROUNDUP
NATIONAL WEATHER SERVICE FORT WORTH TX
700 AM CDT TUE OCT 24 2017

NOTE: "FAIR" INDICATES FEW OR NO CLOUDS BELOW 12,000 FEET WITH NO
SIGNIFICANT WEATHER AND/OR OBSTRUCTIONS TO VISIBILITY.

TXZ118-119-241300-
DALLAS/FORT WORTH METROPLEX

CITY           SKY/WX    TMP DP  RH WIND       PRES   REMARKS
DFW AIRPORT    MOCLDY    58  39  49 NW9       30.30R
6HR MIN TEMP:  56; 6HR MAX TEMP:  65;

DALLAS LOVE    MOCLDY    58  41  53 W5        30.31R
6HR MIN TEMP:  55; 6HR MAX TEMP:  65;

FTW MEACHAM    CLEAR     51  41  68 NW6       30.32R
6HR MIN TEMP:  51; 6HR MAX TEMP:  63;

DAL-EXECUTIVE  CLEAR     54  40  59 NW7       30.31R
6HR MIN TEMP:  53; 6HR MAX TEMP:  65;

FTW-ALLIANCE   CLOUDY    50  39  66 SW5       30.32R
6HR MIN TEMP:  50; 6HR MAX TEMP:  61;

FTW-SPINKS     CLEAR     54  37  54 NW7       30.34S
ARLINGTON      CLEAR     52  38  58 W3        30.32R
6HR MIN TEMP:  52; 6HR MAX TEMP:  64;

GRAND PRAIRIE  CLEAR     55  36  47 W5        30.33S
ADDISON        CLEAR     57  39  51 NW6       30.31R
MESQUITE       CLEAR     55  37  50 NW7       30.30S
LANCASTER      CLEAR     52  40  62 NW6       30.32R
6HR MIN TEMP:  51; 6HR MAX TEMP:  65;

$$

TXZ091>094-102>105-117-120-121-131>134-241300-
NORTH CENTRAL TEXAS

CITY           SKY/WX    TMP DP  RH WIND       PRES   REMARKS
SHRMAN/DENISON CLEAR     50  37  60 CALM      30.31S
6HR MIN TEMP:  49; 6HR MAX TEMP:  59;

GAINESVILLE    CLEAR     49  35  58 NW10      30.34R
6HR MIN TEMP:  49; 6HR MAX TEMP:  55;

BOWIE          CLEAR     48  40  75 W6        30.34S
6HR MIN TEMP:  48; 6HR MAX TEMP:  58;

BRIDGEPORT     MOCLDY    54  39  56 NW5       30.36S
6HR MIN TEMP:  52; 6HR MAX TEMP:  59;

DECATUR        PTCLDY    50  38  64 NW6       30.32S
6HR MIN TEMP:  50; 6HR MAX TEMP:  59;

DENTON         MOCLDY    51  39  63 W7        30.32R
6HR MIN TEMP:  49; 6HR MAX TEMP:  58;

MCKINNEY       CLEAR     52  40  63 W7        30.30R
6HR MIN TEMP:  51; 6HR MAX TEMP:  59;

BONHAM         CLEAR     48  35  59 W7        30.28S
6HR MIN TEMP:  48; 6HR MAX TEMP:  58;

GREENVILLE     CLEAR     54  41  62 CALM      30.29S
ROCKWALL       CLEAR     55  42  61 NW5       30.30S
6HR MIN TEMP:  53; 6HR MAX TEMP:  63;

TERRELL        PTCLDY    57  39  51 NW5       30.30R
6HR MIN TEMP:  57; 6HR MAX TEMP:  65;

WAXAHACHIE     CLEAR     51  40  64 NW5       30.33R
6HR MIN TEMP:  51; 6HR MAX TEMP:  64;

CLEBURNE       CLEAR     52  37  58 N9        30.35R HAZE
GRANBURY       CLEAR     50  39  66 W5        30.36R
6HR MIN TEMP:  48; 6HR MAX TEMP:  63;

$$

TXZ083>090-098>101-113>116-127>130-139>142-154-155-241300-
WESTERN NORTH TEXAS

CITY           SKY/WX    TMP DP  RH WIND       PRES   REMARKS
WICHITA FALLS  CLEAR     48  35  60 NW12      30.36R
6HR MIN TEMP:  48; 6HR MAX TEMP:  53;

WF-KICKAPOO    CLEAR     52  35  51 NW9       30.39R
6HR MIN TEMP:  52; 6HR MAX TEMP:  59;

VERNON         CLEAR     49  28  43 NW8       30.41R
6HR MIN TEMP:  47; 6HR MAX TEMP:  76;

ABILENE        CLEAR     45  38  76 NW6       30.41R
6HR MIN TEMP:  45; 6HR MAX TEMP:  57;

ABILENE-DYESS  CLEAR     48  35  60 NW8       30.41R
6HR MIN TEMP:  47; 6HR MAX TEMP:  54;

GRAHAM           N/A     44  39  82 CALM      30.36S
6HR MIN TEMP:  43; 6HR MAX TEMP:  55;

BRECKENRIDGE   CLEAR     49  37  62 N3        30.38R
6HR MIN TEMP:  49; 6HR MAX TEMP:  58;

CISCO          CLEAR     48  37  66 NW8       30.39R
EASTLAND       CLEAR     47  39  73 MISG      30.38R
6HR MIN TEMP:  42; 6HR MAX TEMP:  59;

RANGER         CLEAR     48  38  67 CALM      30.37R
6HR MIN TEMP:  45; 6HR MAX TEMP:  82;

MINERAL WELLS  CLEAR     49  36  61 NW3       30.34R
6HR MIN TEMP:  47; 6HR MAX TEMP:  60;

STEPHENVILLE   CLEAR     49  37  62 NW7       30.38R
6HR MIN TEMP:  49; 6HR MAX TEMP:  61;

COMANCHE       CLEAR     49  41  71 NW7       30.37S
6HR MIN TEMP:  49; 6HR MAX TEMP:  58;

BROWNWOOD      PTCLDY    48  37  66 NW6       30.38R
COLEMAN        PTCLDY    51  33  51 N8        30.39R
6HR MIN TEMP:  50; 6HR MAX TEMP:  61;

$$

TXZ143>147-156>162-174-175-241300-
CENTRAL TEXAS

CITY           SKY/WX    TMP DP  RH WIND       PRES   REMARKS
WACO           CLEAR     54  41  61 NW9       30.32R
6HR MIN TEMP:  53; 6HR MAX TEMP:  61;

WACO-TSTC      CLEAR     55  41  58 N7        30.32
WACO-MCGREGOR  PTCLDY    51  42  71 NW7       30.33R
6HR MIN TEMP:  51; 6HR MAX TEMP:  63;

HILLSBORO      CLEAR     50  41  71 N6        30.32S
6HR MIN TEMP:  49; 6HR MAX TEMP:  61;

CORSICANA      CLEAR     54  41  61 NW7       30.31R
6HR MIN TEMP:  54; 6HR MAX TEMP:  65;

MEXIA          CLEAR     54  38  56 N7        30.30R
6HR MIN TEMP:  53; 6HR MAX TEMP:  65;

HEARNE         CLEAR     49  45  88 CALM      30.30R
6HR MIN TEMP:  49; 6HR MAX TEMP:  57;

CAMERON        CLEAR     51  46  82 NW7       30.30R
6HR MIN TEMP:  51; 6HR MAX TEMP:  60;

TEMPLE         CLEAR     50  43  77 NW5       30.33R
6HR MIN TEMP:  50; 6HR MAX TEMP:  62;

KILLEEN        CLEAR     52  40  65 N9        30.32R
6HR MIN TEMP:  51; 6HR MAX TEMP:  60;

KILLEEN-SKYLRK CLEAR     55  39  54 NW7       30.33R
6HR MIN TEMP:  55; 6HR MAX TEMP:  63;

FORT HOOD      CLEAR     54  38  55 N7        30.29R
6HR MIN TEMP:  53; 6HR MAX TEMP:  63;

GATESVILLE     CLEAR     50  39  66 CALM      30.36R
HAMILTON       CLEAR     49  39  68 N5        30.36R
6HR MIN TEMP:  49; 6HR MAX TEMP:  62;

LAMPASAS       CLEAR     55  40  56 NW6       30.34R
6HR MIN TEMP:  55; 6HR MAX TEMP:  61;

$$

TXZ095>097-106>112-122>126-135>138-148>153-164>167-241300-
EAST TEXAS

CITY           SKY/WX    TMP DP  RH WIND       PRES   REMARKS
PARIS          CLEAR     50  36  58 W7        30.26S
6HR MIN TEMP:  50; 6HR MAX TEMP:  59;

SULPHUR SPRNGS CLEAR     50  40  69 W3        30.30R
6HR MIN TEMP:  50; 6HR MAX TEMP:  63;

MOUNT PLEASANT CLEAR     53  40  60 NW8       30.27R
6HR MIN TEMP:  53; 6HR MAX TEMP:  62;

GILMER         CLOUDY    55  38  54 CALM      30.26R
6HR MIN TEMP:  55; 6HR MAX TEMP:  61;

MINEOLA        CLOUDY    55  39  54 NW7       30.27S
TYLER          CLOUDY    55  41  59 NW6       30.26S
6HR MIN TEMP:  53; 6HR MAX TEMP:  62;

LONGVIEW       CLOUDY    55  46  71 NW7       30.24R
6HR MIN TEMP:  52; 6HR MAX TEMP:  57;

MARSHALL       CLOUDY    56  39  52 NW6       30.25S
6HR MIN TEMP:  55; 6HR MAX TEMP:  63;

ATHENS         CLOUDY    54  36  50 N5        30.28R
PALESTINE      CLEAR     60  50  69 NW5       30.29R
JACKSONVILLE   CLEAR     58  37  45 N3        30.28R
HENDERSON      CLOUDY    57  38  49 NW3       30.26R
6HR MIN TEMP:  52; 6HR MAX TEMP:  63;

CENTER         MOSUNNY   56  46  69 NW3       30.24R
6HR MIN TEMP:  55; 6HR MAX TEMP:  63;

NACOGDOCHES    CLEAR     50  45  83 N6        30.25R
6HR MIN TEMP:  49; 6HR MAX TEMP:  57;

LUFKIN         PTCLDY    51  46  83 CALM      30.23R
6HR MIN TEMP:  51; 6HR MAX TEMP:  58;

$$

SUPPLEMENTAL OBSERVATIONS (NWS FORT WORTH AREA)

CITY           SKY/WX    TMP DP  RH WIND       PRES   REMARKS
DENISON DAM      N/A     57  39  51 NW17        N/A



USA.gov is the U.S. government's official web portal to all federal, state and local government web resources and services.